Regional Weather Roundup
Issued by NWS

Home | Current Version | Previous Version | Graphics & Text | Print | Product List | Glossary On
Versions: 1 2 3 4 5 6 7 8 9 10 11 12 13 14 15 16 17 18 19 20 21 22 23 24 25 26 27 28 29 30 31 32 33 34 35 36 37 38 39 40 41 42 43 44 45 46 47 48 49 50
000
ASUS43 KMKX 210700
RWRWI

WISCONSIN REGIONAL WEATHER ROUNDUP
NATIONAL WEATHER SERVICE MILWAUKEE/SULLIVAN WI
200 AM CDT FRI JUL 21 2017

NOTE: "FAIR" INDICATES FEW OR NO CLOUDS BELOW 12,000 FEET WITH NO
SIGNIFICANT WEATHER AND/OR OBSTRUCTIONS TO VISIBILITY.

WIZ001-002-006>008-014>016-023>028-210800-
NORTHWEST WISCONSIN

CITY           SKY/WX    TMP DP  RH WIND       PRES   REMARKS
SUPERIOR ARPT  NOT AVBL
ASHLAND        CLEAR     60  59  96 SW5       29.96F
HAYWARD        PTCLDY    59  57  93 CALM      29.99S
SIREN          PTCLDY    64  62  93 CALM      29.98S
CUMBERLAND     MOCLDY    59  59 100 CALM      29.98F FOG
RICE LAKE      FOG       62  62  97 CALM      30.00S VSB 1/4
CHETEK         PTCLDY    62  62 100 CALM      29.98F
LADYSMITH      CLEAR     63  62  96 CALM      30.01S
EAU CLAIRE     FOG       63  63 100 CALM      29.98R VSB 3/4
MENOMONIE      CLEAR     65  64  97 CALM      29.98S FOG
NEW RICHMOND     N/A     64  64  99 CALM      29.97F
OSCEOLA        CLEAR     64  64 100 CALM      29.99S
$$

WIZ003>005-009-010-017-018-210800-
NORTH CENTRAL WISCONSIN

CITY           SKY/WX    TMP DP  RH WIND       PRES   REMARKS
MANITOWISH WTR FOG       57  57 100 CALM      30.00F VSB 1/2
ARBOR VITAE    CLEAR     62  60  93 CALM      30.00S
WOODRUFF       CLEAR     62  60  93 CALM      30.00S
RHINELANDER    FOG       58  58 100 CALM      30.01F VSB 1/4
EAGLE RIVER    PTCLDY    57  57 100 CALM      30.00F FOG
LAND O LAKES   CLEAR     56  56 100 CALM      30.02S FOG
PHILLIPS       PTCLDY    60  60 100 CALM      30.00S FOG
TOMAHAWK         N/A     56  55  96 CALM      30.02S
MEDFORD        CLEAR     63  62  99 N3        30.01R FOG
MERRILL        CLEAR     60  60 100 CALM      30.01R FOG
$$

WIZ029-030-035-036-043>047-210800-
CENTRAL WISCONSIN

CITY           SKY/WX    TMP DP  RH WIND       PRES   REMARKS
WAUSAU         CLEAR     68  65  90 N5        29.99R
MOSINEE        CLEAR     68  64  88 CALM      30.01R
MARSHFIELD     CLEAR     63  60  90 CALM      30.00R FOG
STEVENS POINT  CLEAR     60  60 100 SW3       30.01R
WAUPACA        CLEAR     66  65  96 S5        30.00R
WAUTOMA        CLEAR     64  63  96 CALM      30.00S
WISC RAPIDS    CLEAR     64  64 100 CALM      30.01R FOG
CAMP DOUGLAS   FOG       61  61 100 CALM      30.00R VSB 1/2
$$

WIZ011>013-019>022-031-037>040-048>050-210800-
NORTHEAST WISCONSIN

CITY           SKY/WX    TMP DP  RH WIND       PRES   REMARKS
ANTIGO         CLEAR     60  59  97 CALM      30.02R
SHAWANO        CLEAR     68  64  86 CALM      29.99R
OCONTO         CLEAR     62  62  97 CALM      29.96F
STURGEON BAY     N/A     70  62  76 NE6       29.96F
GREEN BAY      CLEAR     66  66 100 S5        29.98R
MANITOWOC      NOT AVBL
APPLETON       CLEAR     66  63  88 W9        29.97R
CLINTONVILLE   CLEAR     64  64 100 CALM      29.99R
OSHKOSH        CLEAR     69  65  86 CALM      29.97R
$$

WIZ032>034-041-042-053>061-210800-
SOUTHWEST WISCONSIN

CITY           SKY/WX    TMP DP  RH WIND       PRES   REMARKS
LA CROSSE      CLOUDY    72  70  93 CALM      29.99R
SPARTA         CLOUDY    60  60 100 CALM      30.02R FOG
VIROQUA        CLOUDY    70  69  96 SE5       30.02F
BOSCOBEL       FOG       70  69  97 CALM      30.00F VSB 1/4
PRAIRIE DU CHI CLOUDY    70  68  95 CALM      29.99S FOG
PLATTEVILLE    CLOUDY    73  73 100 CALM      30.01F
$$

WIZ056-057-062-063-064-067-068-210800-
SOUTH CENTRAL WISCONSIN

CITY           SKY/WX    TMP DP  RH WIND       PRES   REMARKS
REEDSBURG      CLOUDY    66  66 100 CALM      30.00S FOG
BARABOO/DELLS  CLOUDY    65  64  94 S3        30.00F FOG
LONE ROCK      FOG       69  67  93 NE3       29.99F VSB 1/4
MINERAL POINT  CLOUDY    72  72 100 CALM      30.01F
MADISON        CLOUDY    68  67  96 N5        29.99F
MIDDLETON      CLOUDY    67  67 100 CALM      30.00F
WATERTOWN      CLOUDY    68  68 100 CALM      29.99S
MONROE         CLOUDY    73  68  83 NE5       29.99F
JANESVILLE       N/A     72  72 100 CALM      29.99S FOG
$$

WIZ051-052-058>065-066-070>072-210800-
SOUTHEAST WISCONSIN

CITY           SKY/WX    TMP DP  RH WIND       PRES   REMARKS
MILWAUKEE      MOCLDY    75  71  87 W5        29.98R
WAUKESHA       CLOUDY    70  68  94 CALM      30.00S
MILWAUKEE/TIMM CLEAR     70  66  88 CALM      29.99S
RACINE         CLOUDY    69  68  96 W3        30.00R
KENOSHA        CLOUDY    69  68  96 W3        29.99R
FOND DU LAC    CLEAR     68  65  90 CALM      29.99R
SHEBOYGAN      CLEAR     67  67 100 CALM      29.97S FOG
WEST BEND      CLEAR     66  66 100 CALM      29.99S
JUNEAU         CLEAR     66  66  97 CALM      30.01S FOG
$$

LSZ147-162-210800-
LAKE SUPERIOR

STATION/POSITION TIME  TEMP    WIND        PRES    WAVE
                       AIR SEA DIR/SP/G            HT/PER
                 (UTC) (F)     (DEG/KT/KT) (MB)    (FT/S)
W MID LAKE BUOY  0550   58 48  300/  4/  4 1014.0S   0
DEVILS ISLAND    0600   71     250/  6/  7 1014.1R
PORT WING        0500   66     150/  2/  3 1014.6
SAXON HARBOR     0640   65     190/  4/  5 1013.9F
$$

LMZ867-665-643>646-210800-
LAKE MICHIGAN

STATION/POSITION TIME  TEMP    WIND        PRES    WAVE
                       AIR SEA DIR/SP/G            HT/PER
                 (UTC) (F)     (DEG/KT/KT) (MB)    (FT/S)
CHAMBERS ISLAND  0640   71      40/  4/  5 1013.5F
S GREEN BAY BUOY 0630   73 73   30/  8/ 10 1014.3R
N MID LAKE BUOY  0550   66 65  110/  4/  8 1014.8R   1/ 5
NORTHPORT PIER   0630   67      CALM  /  2 1014.2R
KEWAUNEE LAKESHO 0630   69     300/  5/  6 1013.2F
SHEBOYGAN LAKESH 0600   71     230/  3/  4 1014.0R
PORT WASHINGTON  0630   72     280/  3/  4 1015.9R
ATWATER BUOY     0509   69 68  150/  2/  4 1015.0S
MILWAUKEE LAKESH 0630   74     270/  1/  1   N/A
S MID LAKE BUOY  0550   71 71   10/  2/  4 1014.7F   0
KENOSHA   LAKESH 0600   75     250/  4/  6 1014.6
$$

TC  - TEMPERATURE IN CELSIUS
VSB - VISIBILITY IN STATUTE MILES
WCI - WIND CHILL INDEX
HX  - HEAT INDEX





USA.gov is the U.S. government's official web portal to all federal, state and local government web resources and services.